Weather History for KCKB - February, 2012

Change the Weather History Date:

Friday, February 10, 2012

  Actual Average (KMGW) Record (KMGW)
Temperature  
Mean Temperature 33 °F 33 °F  
Max Temperature 36 °F 42 °F 68 °F (1960)
Min Temperature 30 °F 25 °F -3 °F (1972)
Degree Days  
Heating Degree Days 32 32  
Month to date heating degree days 324  
Since 1 July heating degree days 3351  
Cooling Degree Days 0 0  
Month to date cooling degree days 0  
Year to date cooling degree days 0  
Moisture  
Dew Point 26 °F    
Average Humidity 79    
Maximum Humidity 92    
Minimum Humidity 59    
Precipitation  
Precipitation 0.00 in 0.09 in - ()
Month to date precipitation 0.90  
Year to date precipitation 3.71  
Sea Level Pressure  
Sea Level Pressure 30.02 in    
Wind  
Wind Speed 4 mph (SSW)    
Max Wind Speed 10 mph    
Max Gust Speed -    
Visibility 5 miles    
Events Snow    
T = Trace of Precipitation, MM = Missing Value Source: NWS Daily Summary

Daily Weather History Graph

Daily Weather History Graph

Search for Another Location

Airport or City:

Trip Planner

Search our weather history database for the weather conditions in past years. The results will help you decide how hot, cold, wet, or windy it might be!

Date:

Astronomy

Feb. 10, 2012 Rise Set
Actual Time 7:19 AM EST 5:51 PM EST
Civil Twilight 6:51 AM EST 6:19 PM EST
Nautical Twilight 6:19 AM EST 6:50 PM EST
Astronomical Twilight 5:48 AM EST 7:22 PM EST
Moon 9:26 PM EST (2/10) 8:28 AM EST (2/10)
Length of Visible Light 11h 27m
Length of Day
10h 32m
Waning Gibbous, 90% of the Moon is Illuminated
Feb 10
Waning Gibbous
Feb 14
Last Quarter
Feb 21
New
Feb 29
First Quarter
Mar 8
Full

Hourly Weather History & Observations

Time (EST) Temp. Windchill Dew Point Humidity Pressure Visibility Wind Dir Wind Speed Gust Speed Precip Events Conditions
12:53 AM 30.0 °F 25.2 °F 21.0 °F 69% 30.20 in 10.0 mi South 4.6 mph - N/A   Overcast
1:53 AM 30.0 °F 26.5 °F 21.9 °F 72% 30.19 in 10.0 mi South 3.5 mph - N/A   Overcast
2:53 AM 30.9 °F 26.2 °F 21.0 °F 67% 30.17 in 10.0 mi South 4.6 mph - N/A   Overcast
3:53 AM 30.9 °F 26.2 °F 21.0 °F 67% 30.15 in 10.0 mi South 4.6 mph - N/A   Overcast
4:53 AM 30.9 °F 27.5 °F 21.9 °F 69% 30.15 in 10.0 mi SSW 3.5 mph - N/A   Overcast
5:53 AM 30.9 °F 27.5 °F 21.9 °F 69% 30.14 in 10.0 mi SSW 3.5 mph - N/A   Overcast
6:53 AM 30.9 °F 27.5 °F 21.9 °F 69% 30.14 in 10.0 mi SSW 3.5 mph - N/A   Overcast
7:53 AM 30.9 °F 27.5 °F 21.9 °F 69% 30.13 in 10.0 mi South 3.5 mph - N/A   Overcast
8:53 AM 32.0 °F 26.4 °F 21.9 °F 66% 30.12 in 10.0 mi SSW 5.8 mph - N/A   Overcast
9:53 AM 33.1 °F 27.7 °F 23.0 °F 66% 30.13 in 10.0 mi SSW 5.8 mph - N/A   Overcast
10:53 AM 34.0 °F 28.8 °F 23.0 °F 64% 30.12 in 10.0 mi SSW 5.8 mph - N/A   Overcast
11:53 AM 35.1 °F 29.3 °F 21.9 °F 59% 30.08 in 10.0 mi SSW 6.9 mph - N/A   Overcast
12:53 PM 35.1 °F 28.6 °F 23.0 °F 61% 30.05 in 10.0 mi SSW 8.1 mph - N/A   Overcast
1:53 PM 36.0 °F 28.5 °F 23.0 °F 59% 30.03 in 10.0 mi SSW 10.4 mph - N/A   Overcast
2:37 PM 33.8 °F 25.8 °F 24.8 °F 70% 30.00 in 2.5 mi SW 10.4 mph - 0.00 in Snow Light Snow
2:45 PM 33.8 °F 27.7 °F 26.6 °F 75% 30.00 in 1.0 mi WSW 6.9 mph - 0.00 in Snow Light Snow
2:53 PM 32.0 °F 27.5 °F 27.0 °F 82% 30.02 in 0.8 mi West 4.6 mph - 0.00 in Snow Light Snow
3:05 PM 32.0 °F 28.7 °F 28.4 °F 87% 30.00 in 0.8 mi WSW 3.5 mph - 0.00 in Snow Light Snow
3:42 PM 32.0 °F - 28.4 °F 87% 29.98 in 0.8 mi Calm Calm - 0.00 in Snow Light Snow
3:50 PM 32.0 °F - 28.4 °F 87% 29.98 in 0.8 mi Calm Calm - 0.00 in Snow Light Snow
3:53 PM 32.0 °F - 28.9 °F 88% 29.99 in 1.0 mi Calm Calm - 0.00 in Snow Light Snow
4:25 PM 32.0 °F 28.7 °F 28.4 °F 87% 29.97 in 1.5 mi SSW 3.5 mph - 0.00 in Snow Light Snow
4:36 PM 32.0 °F 27.5 °F 28.4 °F 87% 29.97 in 1.0 mi South 4.6 mph - 0.00 in Snow Light Snow
4:53 PM 32.0 °F 27.5 °F 28.9 °F 88% 29.99 in 1.5 mi South 4.6 mph - 0.00 in Snow Light Snow
5:17 PM 32.0 °F 27.5 °F 28.4 °F 87% 29.96 in 1.5 mi South 4.6 mph - 0.00 in Snow Light Snow
5:24 PM 32.0 °F 28.7 °F 28.4 °F 87% 29.96 in 1.5 mi South 3.5 mph - 0.00 in Snow Light Snow
5:51 PM 32.0 °F - 28.4 °F 87% 29.95 in 3.0 mi Calm Calm - 0.00 in Snow Light Snow
5:53 PM 32.0 °F 28.7 °F 28.9 °F 88% 29.97 in 3.0 mi South 3.5 mph - 0.00 in   Overcast
6:10 PM 32.0 °F - 28.4 °F 87% 29.95 in 1.5 mi Calm Calm - 0.00 in Snow Light Snow
6:53 PM 32.0 °F 28.7 °F 28.9 °F 88% 29.96 in 2.0 mi South 3.5 mph - 0.00 in Snow Light Snow
7:00 PM 32.0 °F 28.7 °F 28.4 °F 87% 29.94 in 2.0 mi South 3.5 mph - 0.00 in Snow Light Snow
7:06 PM 32.0 °F 28.7 °F 28.4 °F 87% 29.94 in 1.0 mi SSW 3.5 mph - 0.00 in Snow Light Snow
7:53 PM 32.0 °F 28.7 °F 30.0 °F 92% 29.95 in 1.0 mi SSW 3.5 mph - 0.00 in Snow Light Snow
8:53 PM 32.0 °F 26.4 °F 28.9 °F 88% 29.95 in 2.0 mi WSW 5.8 mph - 0.00 in Snow Light Snow
9:16 PM 32.0 °F 25.6 °F 28.4 °F 87% 29.93 in 2.0 mi WSW 6.9 mph - 0.00 in Snow Light Snow
9:53 PM 32.0 °F 27.5 °F 28.9 °F 88% 29.94 in 2.0 mi West 4.6 mph - 0.00 in Snow Light Snow
10:00 PM 32.0 °F 27.5 °F 28.4 °F 87% 29.93 in 4.0 mi West 4.6 mph - 0.00 in Snow Light Snow
10:46 PM 30.2 °F 25.4 °F 26.6 °F 86% 29.91 in 5.0 mi West 4.6 mph - 0.00 in Snow Light Snow
10:53 PM 30.9 °F 27.5 °F 28.0 °F 89% 29.92 in 5.0 mi West 3.5 mph - 0.00 in Snow Light Snow
11:15 PM 30.2 °F 26.7 °F 26.6 °F 86% 29.90 in 5.0 mi West 3.5 mph - 0.00 in Snow Light Snow
11:53 PM 30.0 °F 26.5 °F 26.1 °F 85% 29.91 in 8.0 mi SW 3.5 mph - 0.00 in   Overcast